Location: Ehingen
(48.2869°N, 9.7112°E)
Time: 10:35:55
(UTC+01:00)

ISS - Pass Details

Date: 17 November 2017
Orbit: 402 x 407 km, 51.6° (Epoch: 24 November)

Event Time Altitude Azimuth Distance (km) Brightness Sun altitude
Exits shadow 04:48:19 15° 134° (SE) 1,209 -1.0 -26.9°
Drops below altitude 10° 04:48:55 10° 131° (SE) 1,450 -0.5 -26.8°
Sets 04:51:01 0° 127° (SE) 2,306 0.8 -26.5°
